Location: Ferchesar
(52.6477°N, 12.4298°E)
Time: 18:26:43
(UTC+01:00)

Transit 4A - Pass Details

Date: 11 December 2021
Orbit: 864 x 980 km, 66.8° (Epoch: 16 January)

Event Time Altitude Azimuth Distance (km) Brightness Sun altitude
Rises 16:55:07 0° 176° (S) 3,461 11.2 -8.4°
Reaches altitude 10° 16:57:55 10° 165° (SSE) 2,542 10.3 -8.8°
Maximum altitude 17:02:43 27° 110° (ESE) 1,673 8.9 -9.5°
Enters shadow 17:07:02 12° 59° (ENE) 2,436 9.4 -10.1°
